This is the latest recevied weather packets stored in our database for station/object W3AJR. If no packets are shown the sender has not sent any weather packets the latest 1 day(s).
| Time | Temp. | Humidity | Pressure | Rain* | Wind** | Luminosity | Snow |
|---|---|---|---|---|---|---|---|
| 1836274707 | 17.78° C | 99% | 1019.8 hPa | 0 mm | 0 m/s | 0 W/m² | - |
| 1836274560 | 17.78° C | 99% | 1019.7 hPa | 0 mm | 0 m/s | 0 W/m² | - |
| 1836274406 | 17.78° C | 99% | 1019.9 hPa | 0 mm | 0 m/s | 0 W/m² | - |
| 1836274259 | 17.78° C | 99% | 1020.1 hPa | 0 mm | 0 m/s | 0 W/m² | - |
| 1836274104 | 17.78° C | 98% | 1019.8 hPa | 0 mm | 0 m/s | 0 W/m² | - |
| 1778030891 | 22.78° C | 42% | 1010.5 hPa | 0 mm | 0 m/s | 0 W/m² | - |
| 1778030589 | 22.78° C | 42% | 1010.3 hPa | 0 mm | 1.34 m/s, 221° | 0 W/m² | - |
| 1778030286 | 22.78° C | 41% | 1010.1 hPa | 0 mm | 0.89 m/s, 193° | 0 W/m² | - |
| 1778029982 | 22.78° C | 41% | 1010.2 hPa | 0 mm | 1.34 m/s, 190° | 0 W/m² | - |
| 1778029680 | 23.33° C | 41% | 1010 hPa | 0 mm | 0.45 m/s, 277° | 0 W/m² | - |
| 1778029377 | 23.33° C | 40% | 1009.9 hPa | 0 mm | 0.89 m/s, 198° | 0 W/m² | - |
| 1778029074 | 23.89° C | 40% | 1010 hPa | 0 mm | 0.89 m/s, 206° | 0 W/m² | - |
| 1778028771 | 23.89° C | 39% | 1010 hPa | 0 mm | 1.34 m/s, 229° | 0 W/m² | - |
| 1778028467 | 23.89° C | 39% | 1009.7 hPa | 0 mm | 1.79 m/s, 178° | 0 W/m² | - |
| 1778028165 | 23.89° C | 38% | 1009.6 hPa | 0 mm | 1.34 m/s, 213° | 0 W/m² | - |
| 1778027860 | 24.44° C | 38% | 1009.7 hPa | 0 mm | 2.68 m/s, 179° | 0 W/m² | - |
| 1778027557 | 24.44° C | 38% | 1009.6 hPa | 0 mm | 0.89 m/s, 252° | 0 W/m² | - |
| 1778027253 | 24.44° C | 37% | 1009.5 hPa | 0 mm | 0.89 m/s, 187° | 0 W/m² | - |
| 1778026949 | 24.44° C | 37% | 1009.4 hPa | 0 mm | 1.79 m/s, 196° | 0 W/m² | - |
| 1778026645 | 24.44° C | 37% | 1009.4 hPa | 0 mm | 2.68 m/s, 182° | 0 W/m² | - |
| 1778026343 | 25° C | 37% | 1009.6 hPa | 0 mm | 1.79 m/s, 199° | 0 W/m² | - |
| 1778026040 | 25° C | 37% | 1009.4 hPa | 0 mm | 1.34 m/s, 189° | 1 W/m² | - |
| 1778025738 | 25° C | 36% | 1009.3 hPa | 0 mm | 3.13 m/s, 197° | 3 W/m² | - |
| 1778025435 | 25° C | 37% | 1009.6 hPa | 0 mm | 0.89 m/s, 192° | 5 W/m² | - |
| 1778025133 | 25° C | 36% | 1009.3 hPa | 0 mm | 2.68 m/s, 196° | 7 W/m² | - |
* Rain latest hour (hover to see other rain measurements)
** Current wind speed in m/s (hover to see current wind gust speed)